Find BRO-11

NORAD ID: 58264 Int'l Des: 2023-174 Owner: UNSEEN Country: F operational
LEOCIRCULARRETROGRADESSO

实时位置

正在加载3D地球...

关于 BRO-11

正在加载描述...

即将过境

Passes for default location (London). Set your location on the main map for personalized predictions.

高度历史

Loading altitude history...

两行轨道根数

1 58264U 23174J 26106.91307405 .00003227 00000-0 12526-3 0 9999
2 58264 97.3922 184.3434 0011857 69.1682 291.0826 15.26757314135402
Epoch: Apr 16, 2026 • Age: 13 hours

当前状态

高度 494.8 km
速度 7.61 km/s
星下点 -9.99°S, 11.89°W
发射日期 Nov 11, 2023
运行时间 2.4 years
类型 other

技术详情

分类 Payload
质量 10.00 kg
干质量 10.00 kg
总质量 10.00 kg
长度 0.30 m
直径 0.20 m
跨度 0.30 m
形状 Box
制造商 GOMSP
平台类型 Cubesat 6U
阶段状态 In Orbit
所有者/国家 UNSEEN/F

Most Searched